Location: Bednik
(45.3500°N, 16.3833°E)
Time: 06:33:22
(UTC+00:00)

Cosmos 1743 - Pass Details

Date: 08 August 2020
Orbit: 509 x 528 km, 82.5° (Epoch: 23 September)

Event Time Altitude Azimuth Distance (km) Brightness Sun altitude
Exits shadow 22:38:17 32° 9° (N) 935 4.5 -28.7°
Drops below altitude 10° 22:40:26 10° 9° (N) 1,783 6.3 -28.7°
Sets 22:42:36 0° 9° (N) 2,679 7.5 -28.7°
